Regional Weather Roundup
Issued by NWS Newport/Morehead, NC

Current Version | Previous Version | Text Only | Print | Product List | Glossary On
Versions: 1 2 3 4 5 6 7 8 9 10 11 12 13 14 15 16 17 18 19 20 21 22 23 24 25 26 27 28 29 30 31 32 33 34 35 36 37 38 39 40 41 42 43 44 45 46 47 48 49 50
000 ASUS42 KMHX 261113 RWRMHX WEATHER ROUNDUP FOR EASTERN NORTH CAROLINA NATIONAL WEATHER SERVICE NEWPORT/MOREHEAD CITY NC 700 AM EDT TUE JUL 26 2016 NOTE: "FAIR" INDICATES FEW OR NO CLOUDS BELOW 12,000 FEET WITH NO SIGNIFICANT WEATHER AND/OR OBSTRUCTIONS TO VISIBILITY NCZ015>017-031-032-045>047-102-103-261200- NORTH COAST CITY SKY/WX TMP DP RH WIND PRES REMARKS EDENTON PTCLDY 82 73 74 SW8 29.99S ELIZABETH CITY CLEAR 78 73 84 SW10 29.98R KITTY HAWK MOSUNNY 80 73 78 SW10 29.97S MANTEO N/A 80 75 86 W12 29.99S $$ NCZ045>047-081-094-103-104-261200- CENTRAL COAST CITY SKY/WX TMP DP RH WIND PRES REMARKS FRISCO PTCLDY 80 75 84 W10 30.01S $$ NCZ095-097-098-100-101-261200- SOUTHERN COAST CITY SKY/WX TMP DP RH WIND PRES REMARKS BEAUFORT CLOUDY 81 75 82 W10 30.03R CEDAR ISLAND NOT AVBL JACKSONVILLE PTCLDY 76 72 87 SW9 30.03R PINEY ISLAND NOT AVBL WILMINGTON PTCLDY 77 73 87 SW7 30.05R $$ NCZ011>013-027>030-043-044-078>080-089-090>093-098-261200- COASTAL PLAIN CITY SKY/WX TMP DP RH WIND PRES REMARKS AHOSKIE CLEAR 75 73 93 CALM 29.99R CLINTON CLOUDY 76 74 96 SW3 30.03S ELIZABETHTOWN PTCLDY 77 75 94 S5 30.04S GOLDSBORO PTCLDY 77 77 100 SW6 30.00S GREENVILLE PTCLDY 77 73 88 SW9 30.02R HAVELOCK PTCLDY 77 73 87 SW8 30.04R KENANSVILLE NOT AVBL KINSTON PTCLDY 79 73 83 SW6 30.02S NEW BERN CLEAR 77 73 87 SW7 30.03R RICHLANDS CLEAR 75 74 96 SW7 30.04R ROCKY MOUNT CLEAR 76 73 91 SW6 30.00R WASHINGTON NOT AVBL WHITEVILLE CLEAR 74 72 92 CALM 30.04R $$ AMZ130-135-150-152-154-156-158-170-250-252-270-ANZ085-086-088-633-658-670-261200- MARINE OBSERVATIONS STATION/POSITION TIME TEMP WIND PRES WAVE SWELL AIR SEA DIR/SP/G HT/PER HT/PER (UTC) (F) (DEG/KT/KT) (MB) (FT/S) (FT/S) CHESAPEAKE LIGHT NOT AVBL 64 E VA BEACH 1050 81 81 240/ 17/ 21 1013.9 5/ 6 DUCK 1000 81 61 240/ 16/ 21 1014.1 2 E DUCK 1011 65 N/A 1/ 8 OREGON INLET 1000 81 85 230/ 17/ 21 1015.0 13E OREGON INLT 1100 81 N/A 3/ 5 HATTERAS CG 1000 80 83 230/ 9/ 13 1015.8 DIAMOND BUOY 1050 83 84 250/ 17/ 21 1016.2 5/ 5 CAPE LOOKOUT 1100 82 250/ 14/ 17 1016.6 BEAUFORT LAB 1000 81 83 240/ 6/ 10 1016.0 30 SE NEW RVR IN 1008 83 85 260/ 14/ 19 1016.9 30 SE NEW RVR IN 1025 85 N/A 4/ 5 27 SE WRIGHTSVLE 1008 83 84 250/ 14/ 19 1017.3 5 SE WRIGHTSVLE 1008 80 81 260/ 8/ 10 1018.1 225 S CAPE HAT 1050 83 84 220/ 10/ 12 1018.8 2/ 8 2/ 8 41 SE CHARLESTON 1050 85 86 230/ 12/ 14 1017.4 2/ 4 2/ 8 $$

USA.gov is the U.S. government's official web portal to all federal, state and local government web resources and services.